Time,TemperatureF,DewpointF,PressureIn,WindDirection,WindDirectionDegrees,WindSpeedMPH,WindSpeedGustMPH,Humidity,HourlyPrecipIn,Conditions,Clouds,dailyrainin,SoftwareType,DateUTC
2013-03-27 00:33:00,31.0,24.0,29.60,West,260,0.0,0.0,75,0.00,,,0.00,,2013-03-27 04:33:00,
2013-03-27 00:43:00,31.0,24.0,29.60,West,260,0.0,0.0,75,0.00,,,0.00,,2013-03-27 04:43:00,
2013-03-27 00:53:00,31.0,24.0,29.60,West,260,0.0,0.0,75,0.00,,,0.00,,2013-03-27 04:53:00,
2013-03-27 01:03:00,30.0,24.0,29.60,West,260,0.0,0.0,78,0.00,,,0.00,,2013-03-27 05:03:00,
2013-03-27 01:12:00,30.0,24.0,29.60,West,260,0.0,0.0,78,0.00,,,0.00,,2013-03-27 05:12:00,
2013-03-27 01:23:00,30.0,24.0,29.60,West,260,0.0,0.0,78,0.00,,,0.00,,2013-03-27 05:23:00,
2013-03-27 01:33:00,30.0,24.0,29.60,West,260,0.0,0.0,78,0.00,,,0.00,,2013-03-27 05:33:00,
2013-03-27 01:42:00,30.0,24.0,29.60,West,260,0.0,0.0,78,0.00,,,0.00,,2013-03-27 05:42:00,
2013-03-27 02:22:00,30.0,24.0,29.60,West,260,0.0,0.0,79,0.00,,,0.00,,2013-03-27 06:22:00,
2013-03-27 02:32:00,30.0,24.0,29.60,West,260,0.0,0.0,79,0.00,,,0.00,,2013-03-27 06:32:00,
2013-03-27 02:42:00,30.0,24.0,29.60,West,260,0.0,0.0,79,0.00,,,0.00,,2013-03-27 06:42:00,
2013-03-27 02:52:00,30.0,24.0,29.60,West,260,0.0,0.0,79,0.00,,,0.00,,2013-03-27 06:52:00,
2013-03-27 04:02:00,29.0,23.0,29.59,West,260,0.0,0.0,79,0.00,,,0.00,,2013-03-27 08:02:00,
2013-03-27 04:13:00,29.0,23.0,29.59,West,260,0.0,0.0,79,0.00,,,0.00,,2013-03-27 08:13:00,
2013-03-27 04:22:00,29.0,23.0,29.59,West,260,0.0,0.0,79,0.00,,,0.00,,2013-03-27 08:22:00,
2013-03-27 04:32:00,29.0,23.0,29.59,West,260,0.0,0.0,79,0.00,,,0.00,,2013-03-27 08:32:00,
2013-03-27 04:43:00,29.0,23.0,29.59,West,260,0.0,0.0,79,0.00,,,0.00,,2013-03-27 08:43:00,
2013-03-27 05:02:00,28.0,24.0,29.59,West,260,0.0,0.0,83,0.00,,,0.00,,2013-03-27 09:02:00,
2013-03-27 05:12:00,28.0,24.0,29.59,West,260,0.0,0.0,83,0.00,,,0.00,,2013-03-27 09:12:00,
2013-03-27 05:22:00,28.0,24.0,29.59,West,260,0.0,0.0,83,0.00,,,0.00,,2013-03-27 09:22:00,
2013-03-27 05:33:00,27.0,21.0,29.59,West,260,2.0,2.0,78,0.00,,,0.00,,2013-03-27 09:33:00,
2013-03-27 05:42:00,27.0,21.0,29.59,West,260,2.0,2.0,78,0.00,,,0.00,,2013-03-27 09:42:00,
2013-03-27 05:52:00,27.0,21.0,29.59,West,260,0.0,0.0,78,0.00,,,0.00,,2013-03-27 09:52:00,
2013-03-27 06:03:00,28.0,21.0,29.59,West,260,0.0,0.0,76,0.00,,,0.00,,2013-03-27 10:03:00,
2013-03-27 06:12:00,28.0,21.0,29.59,West,260,0.0,0.0,76,0.00,,,0.00,,2013-03-27 10:12:00,
2013-03-27 06:23:00,29.0,22.0,29.60,WSW,246,0.0,0.0,74,0.00,,,0.00,,2013-03-27 10:23:00,
2013-03-27 06:32:00,29.0,22.0,29.60,WSW,246,0.0,0.0,74,0.00,,,0.00,,2013-03-27 10:32:00,
2013-03-27 06:42:00,29.0,22.0,29.60,WSW,246,0.0,0.0,74,0.00,,,0.00,,2013-03-27 10:42:00,
2013-03-27 06:53:00,29.0,22.0,29.60,WSW,246,0.0,0.0,74,0.00,,,0.00,,2013-03-27 10:53:00,
2013-03-27 07:02:00,28.0,21.0,29.61,WSW,251,4.0,5.0,76,0.00,,,0.00,,2013-03-27 11:02:00,
2013-03-27 07:12:00,28.0,21.0,29.61,WSW,251,4.0,5.0,76,0.00,,,0.00,,2013-03-27 11:12:00,
2013-03-27 07:22:00,28.0,21.0,29.61,WSW,251,4.0,5.0,76,0.00,,,0.00,,2013-03-27 11:22:00,
2013-03-27 07:32:00,31.0,22.0,29.61,WSW,241,0.0,8.0,70,0.00,,,0.00,,2013-03-27 11:32:00,
2013-03-27 07:42:00,31.0,22.0,29.61,WSW,241,0.0,8.0,70,0.00,,,0.00,,2013-03-27 11:42:00,
2013-03-27 07:53:00,31.0,22.0,29.61,WSW,241,0.0,8.0,70,0.00,,,0.00,,2013-03-27 11:53:00,
2013-03-27 08:02:00,35.0,23.0,29.61,SW,222,2.0,8.0,62,0.00,,,0.00,,2013-03-27 12:02:00,
2013-03-27 08:12:00,35.0,23.0,29.61,SW,222,2.0,8.0,62,0.00,,,0.00,,2013-03-27 12:12:00,
2013-03-27 08:23:00,35.0,23.0,29.61,SW,222,2.0,8.0,62,0.00,,,0.00,,2013-03-27 12:23:00,
2013-03-27 08:32:00,35.0,23.0,29.61,SW,222,2.0,8.0,62,0.00,,,0.00,,2013-03-27 12:32:00,
2013-03-27 08:43:00,35.0,23.0,29.61,SW,222,2.0,8.0,62,0.00,,,0.00,,2013-03-27 12:43:00,
2013-03-27 08:51:00,39.0,26.0,29.62,SE,124,4.0,8.0,59,0.00,,,0.00,,2013-03-27 12:51:00,
2013-03-27 09:23:00,39.0,26.0,29.62,SE,124,4.0,8.0,59,0.00,,,0.00,,2013-03-27 13:23:00,
2013-03-27 09:32:00,39.0,26.0,29.62,SE,124,4.0,8.0,59,0.00,,,0.00,,2013-03-27 13:32:00,
2013-03-27 09:42:00,39.0,26.0,29.62,SE,124,4.0,8.0,59,0.00,,,0.00,,2013-03-27 13:42:00,
2013-03-27 10:02:00,42.0,26.0,29.62,SW,224,4.0,12.0,52,0.00,,,0.00,,2013-03-27 14:02:00,
2013-03-27 10:12:00,42.0,26.0,29.62,SW,224,4.0,12.0,52,0.00,,,0.00,,2013-03-27 14:12:00,
2013-03-27 10:22:00,42.0,25.0,29.62,North,359,3.0,7.0,51,0.00,,,0.00,,2013-03-27 14:22:00,
2013-03-27 10:32:00,42.0,25.0,29.62,North,359,3.0,7.0,51,0.00,,,0.00,,2013-03-27 14:32:00,
2013-03-27 10:42:00,42.0,25.0,29.62,North,359,3.0,7.0,51,0.00,,,0.00,,2013-03-27 14:42:00,
2013-03-27 10:52:00,42.0,25.0,29.62,North,359,3.0,7.0,51,0.00,,,0.00,,2013-03-27 14:52:00,
2013-03-27 11:02:00,44.0,25.0,29.61,SW,224,6.0,17.0,46,0.00,,,0.00,,2013-03-27 15:02:00,
2013-03-27 11:12:00,44.0,25.0,29.61,SW,224,6.0,17.0,46,0.00,,,0.00,,2013-03-27 15:12:00,
2013-03-27 11:23:00,44.0,25.0,29.61,SW,229,2.0,13.0,47,0.00,,,0.00,,2013-03-27 15:23:00,
2013-03-27 11:33:00,43.0,25.0,29.61,West,270,0.0,8.0,49,0.00,,,0.00,,2013-03-27 15:33:00,
2013-03-27 11:42:00,43.0,25.0,29.61,West,270,0.0,8.0,49,0.00,,,0.00,,2013-03-27 15:42:00,
2013-03-27 11:52:00,44.0,25.0,29.62,WSW,254,7.0,8.0,47,0.00,,,0.00,,2013-03-27 15:52:00,
2013-03-27 12:03:00,44.0,25.0,29.62,WSW,254,7.0,8.0,47,0.00,,,0.00,,2013-03-27 16:03:00,
2013-03-27 12:13:00,44.0,25.0,29.62,WSW,254,7.0,8.0,47,0.00,,,0.00,,2013-03-27 16:13:00,
2013-03-27 12:22:00,44.0,25.0,29.62,WSW,254,7.0,8.0,47,0.00,,,0.00,,2013-03-27 16:22:00,
2013-03-27 12:32:00,44.0,25.0,29.62,WSW,254,7.0,8.0,47,0.00,,,0.00,,2013-03-27 16:32:00,
2013-03-27 13:03:00,44.0,27.0,29.62,NW,320,6.0,8.0,50,0.00,,,0.00,,2013-03-27 17:03:00,
2013-03-27 13:12:00,44.0,27.0,29.62,NW,320,6.0,8.0,50,0.00,,,0.00,,2013-03-27 17:12:00,
2013-03-27 13:22:00,44.0,26.0,29.62,SW,230,8.0,8.0,49,0.00,,,0.00,,2013-03-27 17:22:00,
2013-03-27 13:30:00,44.0,27.0,29.62,WSW,240,2.0,8.0,51,0.00,,,0.00,,2013-03-27 17:30:00,
2013-03-27 13:32:00,44.0,26.0,29.62,SW,230,8.0,8.0,49,0.00,,,0.00,,2013-03-27 17:32:00,
2013-03-27 13:44:00,44.0,26.0,29.62,SW,230,8.0,8.0,49,0.00,,,0.00,,2013-03-27 17:44:00,
2013-03-27 13:52:00,44.0,27.0,29.62,WSW,240,2.0,8.0,51,0.00,,,0.00,,2013-03-27 17:52:00,
2013-03-27 14:02:00,44.0,27.0,29.62,WSW,240,2.0,8.0,51,0.00,,,0.00,,2013-03-27 18:02:00,
2013-03-27 14:12:00,44.0,27.0,29.62,WSW,240,2.0,8.0,51,0.00,,,0.00,,2013-03-27 18:12:00,
2013-03-27 14:23:00,44.0,27.0,29.62,WSW,240,2.0,8.0,51,0.00,,,0.00,,2013-03-27 18:23:00,
2013-03-27 16:30:00,41.0,30.0,29.65,SE,130,0.0,5.0,64,0.00,,,0.00,,2013-03-27 20:30:00,
2013-03-27 16:52:00,41.0,30.0,29.65,SE,130,0.0,5.0,64,0.00,,,0.00,,2013-03-27 20:52:00,
2013-03-27 17:02:00,41.0,30.0,29.65,SE,130,0.0,5.0,64,0.00,,,0.00,,2013-03-27 21:02:00,
2013-03-27 17:12:00,41.0,30.0,29.65,SE,130,0.0,5.0,64,0.00,,,0.00,,2013-03-27 21:12:00,
2013-03-27 17:22:00,41.0,30.0,29.65,SE,130,0.0,5.0,64,0.00,,,0.00,,2013-03-27 21:22:00,
2013-03-27 17:52:00,40.0,31.0,29.67,SSW,195,0.0,7.0,69,0.00,,,0.00,,2013-03-27 21:52:00,
2013-03-27 18:03:00,40.0,31.0,29.67,SSW,195,0.0,7.0,69,0.00,,,0.00,,2013-03-27 22:03:00,
2013-03-27 18:12:00,40.0,31.0,29.67,SSW,195,0.0,7.0,69,0.00,,,0.00,,2013-03-27 22:12:00,
2013-03-27 18:23:00,40.0,31.0,29.67,SSW,195,0.0,7.0,69,0.00,,,0.00,,2013-03-27 22:23:00,
2013-03-27 18:33:00,39.0,31.0,29.68,NW,323,0.0,1.0,74,0.00,,,0.00,,2013-03-27 22:33:00,
2013-03-27 18:42:00,39.0,31.0,29.68,NW,323,0.0,1.0,74,0.00,,,0.00,,2013-03-27 22:42:00,
2013-03-27 18:53:00,39.0,31.0,29.68,NW,323,0.0,1.0,74,0.00,,,0.00,,2013-03-27 22:53:00,
2013-03-27 19:02:00,39.0,31.0,29.68,NW,323,0.0,1.0,74,0.00,,,0.00,,2013-03-27 23:02:00,
2013-03-27 19:12:00,39.0,31.0,29.68,NW,323,0.0,1.0,74,0.00,,,0.00,,2013-03-27 23:12:00,
2013-03-27 19:32:00,37.0,31.0,29.70,West,265,0.0,3.0,80,0.00,,,0.00,,2013-03-27 23:32:00,
2013-03-27 19:43:00,37.0,31.0,29.70,West,265,0.0,3.0,80,0.00,,,0.00,,2013-03-27 23:43:00,
2013-03-27 19:52:00,37.0,31.0,29.70,West,265,0.0,3.0,80,0.00,,,0.00,,2013-03-27 23:52:00,
2013-03-27 20:02:00,36.0,32.0,29.71,SSE,150,0.0,0.0,84,0.00,,,0.00,,2013-03-28 00:02:00,
2013-03-27 20:12:00,36.0,32.0,29.71,SSE,150,0.0,0.0,84,0.00,,,0.00,,2013-03-28 00:12:00,
2013-03-27 20:22:00,36.0,32.0,29.71,SSE,150,0.0,0.0,84,0.00,,,0.00,,2013-03-28 00:22:00,
2013-03-27 20:33:00,36.0,32.0,29.71,SSE,150,0.0,0.0,84,0.00,,,0.00,,2013-03-28 00:33:00,
2013-03-27 20:43:00,36.0,32.0,29.71,SSE,150,0.0,0.0,84,0.00,,,0.00,,2013-03-28 00:43:00,
2013-03-27 22:22:00,34.0,32.0,29.75,SSE,148,0.0,2.0,94,0.02,,,0.03,,2013-03-28 02:22:00,
2013-03-27 22:33:00,34.0,32.0,29.75,SSE,148,0.0,2.0,94,0.02,,,0.03,,2013-03-28 02:33:00,
2013-03-27 22:42:00,34.0,32.0,29.75,SSE,148,0.0,2.0,94,0.02,,,0.03,,2013-03-28 02:42:00,
2013-03-27 22:52:00,34.0,32.0,29.75,SSE,148,0.0,2.0,94,0.02,,,0.03,,2013-03-28 02:52:00,
2013-03-27 23:02:00,34.0,32.0,29.75,SW,232,2.0,2.0,94,0.02,,,0.04,,2013-03-28 03:02:00,
2013-03-27 23:12:00,34.0,32.0,29.75,SW,232,2.0,2.0,94,0.02,,,0.04,,2013-03-28 03:12:00,
2013-03-27 23:22:00,34.0,32.0,29.75,SW,236,0.0,3.0,94,0.01,,,0.04,,2013-03-28 03:22:00,
2013-03-27 23:33:00,34.0,32.0,29.75,SW,236,0.0,3.0,94,0.01,,,0.04,,2013-03-28 03:33:00,
2013-03-27 23:43:00,34.0,32.0,29.75,SW,236,0.0,3.0,94,0.01,,,0.04,,2013-03-28 03:43:00,